Content
SEND FEEDBACK

Daily
Averages
Monthly
Summary
Germany

UNTERSEE, GERMANY


Home > Europe > Germany
Elevation: 1467 feet     Latitude: 47 40N     Longitude: 009 10E

WEATHER
 
SELECT A DAY
Number of Records: 196,140;   Date Range: 7/1/96 - 7/28/14
 
SHARE

PRINT THIS DATA

[ ← Previous Day ]
WEATHER ALMANAC - JANUARY 31, 2013
[ Next Day → ]
[ °C ]   °F
Weather ElementAverageHighLow
Temperature46 °F50 °F (1:50 pm)37.4 °F (7:20 am)
Dewpoint32.6 °F39.2 °F (12:50 am)24.8 °F (4:50 pm)
Humidity61 %81 % (11:43 pm)37 % (5:20 pm)
Barometer30.16 in30.24 in (1:20 am)30.06 in (4:50 pm)
Wind Speed14.6 mph23 mph (5:20 pm)
Wind Gust36.8 mph (5:20 pm)
Weather ElementAverage
Visibility6.2 mi
Wind DirectionWSW (235.7 °)

Weather ElementTotal
Precipitation---
Heating Degree Days21.3 (Base 65)
Averaged from 46 records on January 31, 2013
WEATHER CONDITIONS BREAKOUT
WIND DIRECTION BREAKOUT
WEATHER BY HOUR - JANUARY 31, 2013
[ °C ]   °F
Local TimeTemperatureDewpointHumidityBarometerVisibilityWind DirectionWind SpeedGust SpeedPrecipitationEventsConditions
12:50 AM46.4 °F39.2 °F76 %30.21 in6.2 miWSW (240°)15.0 mphScattered Clouds
1:20 AM46.4 °F37.4 °F71 %30.24 in6.2 miWSW (250°)13.8 mph
1:50 AM46.4 °F37.4 °F71 %30.24 in6.2 miWSW (250°)16.1 mph
2:20 AM44.6 °F35.6 °F71 %30.24 in6.2 miSW (230°)13.8 mph
2:50 AM44.6 °F35.6 °F71 %30.24 in6.2 miWSW (240°)9.2 mphPartly Cloudy
3:20 AM42.8 °F35.6 °F76 %30.24 in6.2 miSSW (210°)6.9 mphMostly Cloudy
3:50 AM42.8 °F33.8 °F70 %30.24 in6.2 miWSW (240°)11.5 mphPartly Cloudy
4:20 AM39.2 °F32.0 °F75 %30.24 in6.2 miWSW (240°)8.1 mph
4:50 AM42.8 °F33.8 °F70 %30.21 in6.2 miSW (230°)12.7 mph
5:20 AM42.8 °F32.0 °F66 %30.24 in6.2 miSW (230°)13.8 mph
5:50 AM41.0 °F32.0 °F70 %30.24 inWSW (240°)10.4 mphClear
6:20 AM41.0 °F32.0 °F70 %30.24 inSW (230°)12.7 mphClear
6:50 AM41.0 °F30.2 °F65 %30.24 inSSW (210°)6.9 mphClear
7:20 AM37.4 °F30.2 °F75 %30.24 in6.2 miVariable3.5 mphPartly Cloudy
7:50 AM37.4 °F30.2 °F75 %30.24 in6.2 miSSW (200°)4.6 mphPartly Cloudy
8:20 AM39.2 °F32.0 °F75 %30.24 in6.2 miSSW (210°)6.9 mphPartly Cloudy
9:20 AM44.6 °F32.0 °F61 %30.24 in6.2 miSSW (210°)10.4 mphPartly Cloudy
9:50 AM44.6 °F33.8 °F66 %30.24 in6.2 miSSW (210°)10.4 mphPartly Cloudy
10:20 AM44.6 °F33.8 °F66 %30.21 in6.2 miSW (220°)11.5 mphPartly Cloudy
10:50 AM46.4 °F33.8 °F62 %30.21 in6.2 miWSW (250°)16.1 mphPartly Cloudy
11:20 AM46.4 °F35.6 °F66 %30.21 in6.2 miWSW (250°)11.5 mphPartly Cloudy
11:50 AM48.2 °F33.8 °F58 %30.18 in6.2 miWSW (240°)13.8 mphPartly Cloudy
12:20 PM48.2 °F35.6 °F62 %30.18 inWSW (250°)12.7 mphClear
12:50 PM48.2 °F35.6 °F62 %30.15 in6.2 miWSW (240°)11.5 mphPartly Cloudy
1:50 PM50.0 °F33.8 °F54 %30.12 in6.2 miWSW (240°)17.3 mphPartly Cloudy
2:20 PM50.0 °F32.0 °F50 %30.12 in6.2 miWSW (250°)16.1 mphPartly Cloudy
2:50 PM50.0 °F33.8 °F54 %30.12 inWest (260°)15.0 mph26.5 mphClear
3:20 PM50.0 °F30.2 °F47 %30.12 inWSW (250°)17.3 mphClear
3:50 PM48.2 °F30.2 °F50 %30.09 inSW (230°)16.1 mphClear
4:20 PM48.2 °F28.4 °F46 %30.09 inWSW (240°)15.0 mphClear
4:50 PM48.2 °F24.8 °F40 %30.06 inWSW (250°)17.3 mphClear
5:20 PM50.0 °F24.8 °F37 %30.06 inWSW (250°)23.0 mph36.8 mphClear
5:50 PM50.0 °F26.6 °F40 %30.06 in6.2 miWSW (250°)20.7 mphMostly Cloudy
6:20 PM48.2 °F24.8 °F40 %30.06 in6.2 miWSW (250°)19.6 mph33.4 mphMostly Cloudy
6:50 PM50.0 °F24.8 °F37 %30.09 in6.2 miWest (260°)21.9 mph36.8 mphOvercast
7:20 PM50.0 °F26.6 °F40 %30.09 in6.2 miWSW (250°)19.6 mphOvercast
7:50 PM50.0 °F28.4 °F43 %30.06 in6.2 miWest (260°)17.3 mphOvercast
8:20 PM50.0 °F28.4 °F43 %30.06 in6.2 miWest (260°)16.1 mphOvercast
8:50 PM50.0 °F30.2 °F47 %30.06 in6.2 miWSW (250°)18.4 mphRainLight Rain
9:20 PM48.2 °F33.8 °F58 %30.06 in6.2 miWSW (250°)23.0 mphOvercast
9:50 PM48.2 °F35.6 °F62 %30.09 in6.2 miWSW (250°)23.0 mphMostly Cloudy
10:20 PM46.4 °F37.4 °F71 %30.06 in6.2 miWSW (250°)21.9 mphOvercast
10:50 PM48.2 °F37.4 °F66 %30.06 in6.2 miWSW (250°)21.9 mphMostly Cloudy
11:20 PM46.4 °F37.4 °F71 %30.09 in6.2 miWSW (250°)17.3 mphRainRain Showers
11:43 PM44.6 °F39.2 °F81 %30.09 in6.2 miWest (260°)16.1 mph29.9 mphRainRain Showers
11:50 PM44.6 °F39.2 °F81 %30.09 in6.2 miWest (260°)16.1 mph29.9 mphRainRain Showers
Hourly data recorded from EDNY, located miles away from Untersee, Germany







STORIES FROM OUR PARTNERS